Location: Azenweiler
(47.8027°N, 9.4096°E)
Time: 02:58:13
(UTC+00:00)

Cosmos 1626 Rocket - Pass Details

Date: 19 March 2026
Orbit: 596 x 624 km, 82.5° (Epoch: 13 April)

Event Time Altitude Azimuth Distance (km) Brightness Sun altitude
Rises 18:18:21 0° 245° (WSW) 2,902 8.1 -8.3°
Reaches altitude 10° 18:22:20 10° 281° (W) 2,000 7.9 -9.0°
Maximum altitude 18:23:37 11° 298° (WNW) 1,929 7.4 -9.2°
Drops below altitude 10° 18:24:55 10° 315° (NW) 2,002 7.1 -9.4°
Sets 18:28:55 0° 351° (N) 2,910 7.3 -10.1°
